Home   Weather   Luleå   Past weeks
Flag for Sweden

Past Weather in Luleå, Sweden — Yesterday and Last 2 Weeks

Now
38 °F

Passing clouds.


Feels Like: 31 °F
Forecast: 35 / 21 °F
Wind: 9 mph from Northwest

Location: Lulea / Kallax

Current Time: Mar 24, 2019 at 8:37:55 pm

Latest Report: Mar 24, 2019 at 7:00 pm


Visibility: 31 mi

Pressure: 29.41 "Hg

Humidity: 54%

Dew Point: 23 °F

Location of LuleåLocation

Past Weather in Luleå — Graph

°F

Luleå Temperature Yesterday

Maximum temperature yesterday: 45 °F (at 3:00 pm)
Minimum temperature yesterday: 32 °F (at 12:00 am)
Average temperature yesterday: 38 °F

High & Low Weather Summary for the Past Weeks

 TemperatureHumidityPressure
High45 °F (Mar 23, 3:00 pm)98% (Mar 15, 4:00 am)30.19 "Hg (Mar 15, 4:00 am)
Low0 °F (Mar 13, 4:00 am)38% (Mar 23, 3:00 pm)28.88 "Hg (Mar 9, 6:00 pm)
Average27 °F82%29.54 "Hg
* Reported Mar 9 6:00 pm — Mar 24 6:00 pm, Luleå. Weather by CustomWeather, © 2019

Note: Actual official high and low records may vary slightly from our data, if they occured in-between our weather recording intervals... More about our weather records

Advertising

Luleå Weather History for the Previous 24 Hours

Scroll right to see more
 ConditionsComfort  
Time TempWeatherWind HumidityBarometerVisibility
6:00 pm
Sun, Mar 24
39 °FPassing clouds.8 mph55%29.38 "Hg43 mi
5:00 pm40 °FPartly sunny.9 mph50%29.35 "Hg43 mi
4:00 pm40 °FPartly sunny.9 mph49%29.35 "Hg37 mi
3:00 pm40 °FPartly sunny.10 mph45%29.32 "Hg47 mi
2:00 pm42 °FScattered clouds.12 mph42%29.29 "Hg47 mi
1:00 pm40 °FPartly sunny.14 mph44%29.26 "Hg37 mi
12:00 pm39 °FOvercast.12 mph47%29.26 "Hg31 mi
11:00 am38 °FOvercast.16 mph48%29.23 "Hg37 mi
10:00 am38 °FOvercast.14 mph47%29.21 "Hg47 mi
9:00 am38 °FPartly sunny.14 mph47%29.21 "Hg47 mi
8:00 am39 °FPassing clouds.17 mph48%29.18 "Hg47 mi
7:00 am38 °FSunny.15 mph50%29.15 "Hg28 mi
6:00 am39 °FSunny.13 mph53%29.15 "Hg28 mi
5:00 am39 °FClear.9 mph59%29.15 "Hg31 mi
4:00 am40 °FClear.9 mph60%29.09 "Hg28 mi
3:00 am39 °FClear.8 mph61%29.06 "Hg31 mi
2:00 am39 °FPassing clouds.10 mph62%29.06 "Hg31 mi
1:00 am39 °FOvercast.9 mph62%29.06 "Hg31 mi
12:00 am38 °FOvercast.8 mph63%29.09 "Hg31 mi
11:00 pm
Sat, Mar 23
38 °FPassing clouds.8 mph59%29.12 "Hg28 mi
10:00 pm38 °FPassing clouds.7 mph54%29.15 "Hg47 mi
9:00 pm39 °FPassing clouds.7 mph53%29.18 "Hg47 mi
8:00 pm39 °FPassing clouds.6 mph52%29.23 "Hg47 mi
Weather by CustomWeather, © 2019

See weather overview